Skip Page Navigation
NASA JPL Caltech
NASA Logo - Jet Propulsion Laboratory + View the NASA Portal
+ Center for Near-Earth Object Studies
JPL Home Earth Solar System Stars & Galaxies Technology
JPL Solar System Dynamics
BODIES ORBITS EPHEMERIDES TOOLS PHYSICAL DATA DISCOVERY FAQ SITE MAP
JPL Small-Body Database Browser
Search: [ help ]  
243536 Mannheim (2010 EQ111)
Classification: Main-belt Asteroid          SPK-ID: 2243536
Ephemeris | Orbit Diagram | Orbital Elements | Mission Design | Physical Parameters | Discovery Circumstances | Close-Approach Data ]

[ show orbit diagram ]
Orbital Elements at Epoch 2459000.5 (2020-May-31.0) TDB
Reference: JPL 19 (heliocentric ecliptic J2000)
 Element Value Uncertainty (1-sigma)   Units 
e .1064033652970256 4.317e-08  
a 3.108453054915833 3.5405e-08 au
q 2.777703189004968 1.3382e-07 au
i 7.689384568843129 5.1995e-06 deg
node 135.7385095311465 3.8699e-05 deg
peri 134.8386128489554 4.6453e-05 deg
M 226.3135034894508 2.6719e-05 deg
tp 2459743.861282490897
(2022-Jun-13.36128249)
0.00015282 TDB
period 2001.77331803744
5.48
3.42e-05
9.363e-08
d
yr
n .1798405427608296 3.0726e-09 deg/d
Q 3.439202920826697 3.9173e-08 au
  Orbit Determination Parameters
   # obs. used (total)      306  
   data-arc span      6714 days (18.38 yr)  
   first obs. used      2001-09-12  
   last obs. used      2020-01-30  
   planetary ephem.      DE431  
   SB-pert. ephem.      SB431-N16  
   condition code      0  
   norm. resid. RMS      .55486  
   source      ORB  
   producer      Otto Matic  
   solution date      2020-Feb-25 09:22:02  

Additional Information
 Earth MOID = 1.7682 au 
 Jupiter MOID = 1.71005 au 
 T_jup = 3.197 
[ show covariance matrix ]

Ephemeris | Orbit Diagram | Orbital Elements | Mission Design | Physical Parameters | Discovery Circumstances | Close-Approach Data ]

Physical Parameter Table
Parameter Symbol Value Units Sigma Reference Notes
absolute magnitude H 15.5   n/a MPO422946  
diameter diameter 3.511 km 0.739 urn:nasa:pds:neowise_diameters_albedos::2.0[mainbelt] (http://adsabs.harvard.edu/abs/2011ApJ...741...68M)  
geometric albedo albedo 0.099   0.033 urn:nasa:pds:neowise_diameters_albedos::2.0[mainbelt] (http://adsabs.harvard.edu/abs/2011ApJ...741...68M)  

243536 Mannheim           Discovered 2010 Mar. 15 by E. Schwab at the Tzec Maun Observatory, Moorook.
Mannheim is a German city in the federal state of Baden-Württemberg, where Karl Benz appeared on the streets with his first car in 1886. The Mannheim Observatory, which was in operation from 1772 to 1880, was visited by well-known people, such as Wolfgang Amadeus Mozart and Benjamin Franklin.
NOTE: some special characters may not display properly (any characters within {} are an attempt to place the proper accent above a character)
Reference: 20100923/MPCPages.arcLast Updated: 2010-12-06

[ hide close-approach data ]
Close-Approach Data   ...sorted by Date/Time (TDB)
Date/Time (TDB) Time Uncertainty
(days_HH:MM)
Body Nominal Distance (au) Minimum Distance (au) Maximum Distance (au) V-relative (km/s) V-infinity (km/s) JD (TDB) Time Uncertainty (minutes) Semi-major axis (km) Semi-minor axis (km) range-LOV angle (deg) N-sigma BP Orbit Ref. Reference Modified
1953-Dec-01 21:44 00:03 Jupiter 1.70905132921447 1.70905060866222 1.70905204976604 2.01561966172128 1.75257042784823 2434713.405437378 3.35714413725622 83.9730340268604 39.7046190820321 -86.0365050551895 1246433.17039514 T 19 CATAB v2.0f-lin.ifort 2020-Feb-25 09:22:04 2020-Feb-25 09:22
1963-Oct-26 04:07 00:03 Jupiter 1.83793484125772 1.83793386806579 1.83793581445289 3.0794508791894 2.92597104732974 2438328.671819980 2.6935073686325 166.784434798143 20.2941599499441 -84.2035953454185 2202190.71506708 T 19 CATAB v2.0f-lin.ifort 2020-Feb-25 09:22:04 2020-Feb-25 09:22
2014-Nov-28 12:33 < 00:01 Jupiter 1.98203339218626 1.98203286648862 1.9820339178838 3.27058980945808 3.1372053090492 2456990.022653383 0.260636142405277 55.1640898304014 19.9019538722285 -82.7197904376921 2719642.73743618 T 19 CATAB v2.0f-lin.ifort 2020-Feb-25 09:22:04 2020-Feb-25 09:22
2024-Nov-23 17:31 < 00:01 Jupiter 1.70207277426525 1.70207226142958 1.70207328710073 1.96556179448883 1.69356122382447 2460638.229605704 0.597923420744944 89.5419359178641 30.479816443059 -87.2680485881321 2182541.23934863 T 19 CATAB v2.0f-lin.ifort 2020-Feb-25 09:22:04 2020-Feb-25 09:22
2034-Oct-21 23:40 00:01 Jupiter 1.88846342632375 1.88846276613119 1.88846408651642 3.38423764578041 3.24900215722308 2464257.485790078 1.06621744259141 76.0437286395808 22.1360448038578 -81.9445362669592 2405366.26948838 T 19 CATAB v2.0f-lin.ifort 2020-Feb-25 09:22:04 2020-Feb-25 09:22
2085-Nov-26 14:14 00:04 Jupiter 1.92575099177429 1.92574951049648 1.92575247305922 3.07847321968007 2.93211820310932 2482921.093226003 3.53252326309545 219.128302779546 19.3922978481042 -76.0696650303764 2200770.39240688 T 19 CATAB v2.0f-lin.ifort 2020-Feb-25 09:22:04 2020-Feb-25 09:22
2095-Nov-17 05:04 00:04 Jupiter 1.7037014604518 1.70370088660561 1.70370203429866 1.95984859519504 1.68720906452978 2486563.710987129 4.45683587565655 185.652154480631 29.4534299338874 -85.5979316408812 2201348.35228729 T 19 CATAB v2.0f-lin.ifort 2020-Feb-25 09:22:04 2020-Feb-25 09:22
2105-Oct-20 06:17 00:05 Jupiter 1.94279661075463 1.9427947334911 1.94279848803163 3.703576936046 3.58392522402684 2490187.762055393 4.63909509225911 289.240033719169 23.4077489382813 -76.5904554856364 2529827.85526197 T 19 CATAB v2.0f-lin.ifort 2020-Feb-25 09:22:04 2020-Feb-25 09:22
2156-Nov-25 20:28 00:07 Jupiter 1.87284897655665 1.87284620514724 1.87285174799809 2.90459719542049 2.74447745442727 2508852.352821389 7.16559343023586 430.872665094372 18.4224641244141 -77.1947124215291 2028845.41861245 T 19 CATAB v2.0f-lin.ifort 2020-Feb-25 09:22:04 2020-Feb-25 09:22
2166-Nov-10 03:46 00:08 Jupiter 1.71457618684938 1.71457507164861 1.71457730207568 2.00435329882573 1.74051906761985 2512488.657212108 8.40106890840265 422.169836360978 23.3979737153296 89.1162846531941 2174037.2375468 T 19 CATAB v2.0f-lin.ifort 2020-Feb-25 09:22:04 2020-Feb-25 09:22
2176-Oct-20 22:10 00:08 Jupiter 1.99228149260888 1.99227820368165 1.99228478157937 4.00178233151388 3.89409267659893 2516121.423610981 8.10799143694942 504.364364376359 23.861880909507 -74.939512655749 2716843.83504296 T 19 CATAB v2.0f-lin.ifort 2020-Feb-25 09:22:04 2020-Feb-25 09:22

Alternate Designations
 2010 EQ111 = 2005 JB136 
Ephemeris | Orbit Diagram | Orbital Elements | Mission Design | Physical Parameters | Discovery Circumstances | Close-Approach Data ]
ABOUT SSD CREDITS/AWARDS PRIVACY/COPYRIGHT GLOSSARY LINKS
FirstGov 2020-Oct-25 09:00 UT
(server date/time)  
NASA Home Page
Site Manager:   Ryan S. Park
Webmaster  Alan B. Chamberlin